TimeCST,TemperatureF,Dew PointF,Humidity,Sea Level PressureIn,VisibilityMPH,Wind Direction,Wind SpeedMPH,Gust SpeedMPH,PrecipitationIn,Events,Conditions,WindDirDegrees,DateUTC
12:00 AM,1.4,-0.4,92,30.21,10.0,ESE,5.8,-,N/A,,Clear,110,2013-01-26 06:00:00
12:20 AM,1.4,-0.4,92,30.21,10.0,SE,5.8,-,N/A,,Clear,130,2013-01-26 06:20:00
12:40 AM,1.4,-0.4,92,30.21,10.0,ESE,5.8,-,N/A,,Clear,120,2013-01-26 06:40:00
1:00 AM,1.4,-0.4,92,30.21,10.0,ESE,6.9,-,N/A,,Clear,110,2013-01-26 07:00:00
1:20 AM,1.4,-0.4,92,30.21,10.0,ESE,5.8,-,N/A,,Clear,120,2013-01-26 07:20:00
1:40 AM,1.4,-0.4,92,30.20,10.0,ESE,5.8,-,N/A,,Clear,120,2013-01-26 07:40:00
2:00 AM,1.4,-0.4,92,30.20,10.0,ESE,6.9,-,N/A,,Clear,120,2013-01-26 08:00:00
2:20 AM,1.4,-0.4,92,30.20,10.0,ESE,8.1,-,N/A,,Clear,110,2013-01-26 08:20:00
2:40 AM,1.4,-0.4,92,30.19,10.0,ESE,6.9,-,N/A,,Clear,120,2013-01-26 08:40:00
3:00 AM,1.4,-0.4,92,30.19,10.0,SE,6.9,-,N/A,,Clear,140,2013-01-26 09:00:00
3:20 AM,1.4,-0.4,92,30.20,10.0,SE,6.9,-,N/A,,Clear,140,2013-01-26 09:20:00
3:40 AM,1.4,-0.4,92,30.19,10.0,ESE,8.1,-,N/A,,Clear,120,2013-01-26 09:40:00
4:00 AM,1.4,-0.4,92,30.19,10.0,ESE,6.9,-,N/A,,Clear,120,2013-01-26 10:00:00
4:20 AM,1.4,-0.4,92,30.17,10.0,SE,8.1,-,N/A,,Clear,140,2013-01-26 10:20:00
4:40 AM,1.4,-0.4,92,30.16,10.0,SE,10.4,-,N/A,,Clear,130,2013-01-26 10:40:00
5:00 AM,1.4,-0.4,92,30.14,10.0,SE,12.7,-,N/A,,Clear,140,2013-01-26 11:00:00
5:20 AM,1.4,-0.4,92,30.14,10.0,SE,11.5,-,N/A,,Clear,140,2013-01-26 11:20:00
5:40 AM,1.4,-0.4,92,30.14,10.0,SE,9.2,-,N/A,,Clear,140,2013-01-26 11:40:00
6:00 AM,1.4,-0.4,92,30.13,10.0,SSE,13.8,-,N/A,,Clear,150,2013-01-26 12:00:00
6:20 AM,3.2,-0.4,85,30.13,10.0,SSE,10.4,-,N/A,,Clear,150,2013-01-26 12:20:00
6:40 AM,3.2,-0.4,85,30.13,10.0,SE,12.7,-,N/A,,Clear,140,2013-01-26 12:40:00
7:00 AM,5.0,-0.4,78,30.14,10.0,SE,13.8,-,N/A,,Clear,140,2013-01-26 13:00:00
7:20 AM,5.0,-0.4,78,30.13,10.0,SE,12.7,-,N/A,,Clear,140,2013-01-26 13:20:00
7:40 AM,5.0,-0.4,78,30.12,10.0,SSE,12.7,-,N/A,,Clear,150,2013-01-26 13:40:00
8:00 AM,5.0,1.4,85,30.12,10.0,SE,13.8,-,N/A,,Clear,140,2013-01-26 14:00:00
8:20 AM,6.8,1.4,79,30.12,10.0,SE,11.5,16.1,N/A,,Clear,130,2013-01-26 14:20:00
8:40 AM,6.8,1.4,79,30.12,10.0,SE,11.5,-,N/A,,Clear,140,2013-01-26 14:40:00
9:00 AM,6.8,1.4,79,30.11,10.0,SSE,17.3,-,N/A,,Clear,150,2013-01-26 15:00:00
9:20 AM,6.8,3.2,85,30.10,10.0,SSE,13.8,19.6,N/A,,Clear,150,2013-01-26 15:20:00
9:40 AM,8.6,3.2,79,30.10,10.0,SSE,13.8,-,N/A,,Clear,150,2013-01-26 15:40:00
10:00 AM,8.6,5.0,85,30.10,10.0,SSE,15.0,-,N/A,,Clear,150,2013-01-26 16:00:00
10:40 AM,10.4,6.8,85,30.10,10.0,SSE,13.8,-,N/A,,Clear,150,2013-01-26 16:40:00
11:00 AM,14.0,6.8,73,30.08,10.0,SSE,15.0,19.6,N/A,,Clear,150,2013-01-26 17:00:00
11:20 AM,14.0,8.6,79,30.08,10.0,SSE,16.1,19.6,N/A,,Clear,150,2013-01-26 17:20:00
11:40 AM,15.8,10.4,79,30.05,10.0,SSE,15.0,-,N/A,,Scattered Clouds,150,2013-01-26 17:40:00
12:00 PM,17.6,12.2,79,30.04,10.0,SSE,15.0,20.7,N/A,,Overcast,150,2013-01-26 18:00:00
12:20 PM,17.6,14.0,86,30.02,10.0,SSE,15.0,-,N/A,,Overcast,160,2013-01-26 18:20:00
12:40 PM,19.4,15.8,86,30.01,10.0,South,17.3,21.9,N/A,,Overcast,170,2013-01-26 18:40:00
1:00 PM,21.2,17.6,86,29.99,10.0,South,19.6,24.2,N/A,,Mostly Cloudy,170,2013-01-26 19:00:00
1:20 PM,23.0,17.6,80,29.97,10.0,SSE,18.4,27.6,N/A,,Partly Cloudy,160,2013-01-26 19:20:00
1:40 PM,23.0,19.4,86,29.96,10.0,SSE,16.1,23.0,N/A,,Clear,160,2013-01-26 19:40:00
2:00 PM,24.8,19.4,80,29.97,10.0,SSE,10.4,-,N/A,,Clear,160,2013-01-26 20:00:00
2:20 PM,26.6,23.0,86,29.97,10.0,South,12.7,-,N/A,,Clear,170,2013-01-26 20:20:00
2:40 PM,26.6,23.0,86,29.97,10.0,South,12.7,-,N/A,,Clear,170,2013-01-26 20:40:00
3:20 PM,26.6,23.0,86,29.96,10.0,SSE,11.5,-,N/A,,Scattered Clouds,150,2013-01-26 21:20:00
3:40 PM,26.6,24.8,93,29.96,10.0,SE,8.1,-,N/A,,Scattered Clouds,140,2013-01-26 21:40:00
4:00 PM,26.6,24.8,93,29.96,10.0,SE,8.1,-,N/A,,Partly Cloudy,140,2013-01-26 22:00:00
4:20 PM,26.6,24.8,93,29.95,10.0,SE,8.1,-,N/A,,Clear,130,2013-01-26 22:20:00
4:40 PM,26.6,24.8,93,29.95,10.0,ESE,8.1,-,N/A,,Clear,120,2013-01-26 22:40:00
5:00 PM,24.8,24.8,100,29.94,10.0,ESE,8.1,-,N/A,,Clear,120,2013-01-26 23:00:00
5:20 PM,24.8,24.8,100,29.94,10.0,ESE,8.1,-,N/A,,Clear,120,2013-01-26 23:20:00
5:40 PM,24.8,24.8,100,29.94,10.0,ESE,8.1,-,N/A,,Clear,110,2013-01-26 23:40:00
6:00 PM,24.8,24.8,100,29.94,10.0,ESE,9.2,-,N/A,,Clear,120,2013-01-27 00:00:00
6:40 PM,24.8,24.8,100,29.94,10.0,ESE,6.9,-,N/A,,Clear,120,2013-01-27 00:40:00
7:00 PM,24.8,24.8,100,29.94,10.0,SE,10.4,-,N/A,,Clear,140,2013-01-27 01:00:00
7:20 PM,26.6,26.6,100,29.93,10.0,SE,11.5,-,N/A,,Clear,140,2013-01-27 01:20:00
7:40 PM,24.8,24.8,100,29.93,10.0,SSE,11.5,-,N/A,,Clear,150,2013-01-27 01:40:00
8:00 PM,24.8,24.8,100,29.92,10.0,SSE,12.7,-,N/A,,Clear,150,2013-01-27 02:00:00
8:20 PM,24.8,24.8,100,29.91,10.0,SSE,13.8,19.6,N/A,,Clear,160,2013-01-27 02:20:00
8:40 PM,24.8,24.8,100,29.91,10.0,SSE,11.5,18.4,N/A,,Clear,160,2013-01-27 02:40:00
9:00 PM,26.6,26.6,100,29.91,10.0,South,12.7,-,N/A,,Clear,170,2013-01-27 03:00:00
9:20 PM,26.6,26.6,100,29.90,10.0,South,12.7,18.4,N/A,,Clear,170,2013-01-27 03:20:00
9:40 PM,26.6,26.6,100,29.90,10.0,South,12.7,-,N/A,,Clear,170,2013-01-27 03:40:00
10:00 PM,28.4,28.4,100,29.90,10.0,South,13.8,-,N/A,,Clear,170,2013-01-27 04:00:00
10:20 PM,28.4,28.4,100,29.90,10.0,South,15.0,-,N/A,,Clear,170,2013-01-27 04:20:00
10:40 PM,28.4,28.4,100,29.90,10.0,South,15.0,-,N/A,,Clear,170,2013-01-27 04:40:00
11:00 PM,28.4,28.4,100,29.90,10.0,South,18.4,21.9,N/A,,Clear,170,2013-01-27 05:00:00
11:20 PM,30.2,28.4,93,29.89,10.0,South,18.4,24.2,N/A,,Clear,170,2013-01-27 05:20:00
11:40 PM,30.2,28.4,93,29.89,10.0,South,18.4,-,N/A,,Clear,170,2013-01-27 05:40:00